Simultaneous Nadir Overpasses (SNOs) Predictions

Prediction of SNOs between METOP-B and TERRA Satellite Orbit:

Table of predicted SNOs for the next 14.0 days since TLE Epoch: 1/5/2019
Index Date (METOP-B) Time (METOP-B) Lat,Lon (METOP-B) SZA (METOP-B ) Date (TERRA) Time (TERRA) Lat,Lon (TERRA) SZA (TERRA ) Distance(km) Time Diff (sec)
1 01/07/2019 09:21:12 -81.28, -93.30 73.89 01/07/2019 09:21:38 -81.29, -93.27 73.87 0.99 26
2 01/07/2019 10:11:52 81.29, 74.27 106.14 01/07/2019 10:11:05 81.27, 74.10 106.09 3.23 47
3 01/10/2019 04:55:36 -81.28, -27.00 74.32 01/10/2019 04:55:52 -81.28, -26.93 74.30 1.34 16
4 01/10/2019 05:46:15 81.29, 140.92 105.75 01/10/2019 05:45:18 81.29, 140.80 105.71 2.12 57
5 01/13/2019 00:30:01 -81.28, 39.28 74.80 01/13/2019 00:30:07 -81.27, 39.35 74.79 1.37 6
6 01/13/2019 01:20:40 81.29,-152.84 105.26 01/13/2019 01:19:33 81.28,-152.94 105.22 1.96 67
7 01/15/2019 19:13:44 81.28, -61.52 104.71 01/15/2019 19:14:54 81.29, -61.66 104.72 2.39 70
8 01/15/2019 20:04:25 -81.28, 105.93 75.29 01/15/2019 20:04:21 -81.28, 105.95 75.29 0.36 4
9 01/18/2019 14:48:09 81.27, 4.30 104.07 01/18/2019 14:49:08 81.27, 4.48 104.11 3.19 59




NCC Satellite Simultaneous Nadir Overpasses (SNOs) Prediction Service
